Location: Gwatt
(46.7204°N, 7.6223°E)
Time: 14:06:38
(UTC+00:00)

deb Explorer IX - Pass Details

Date: 30 January 2021
Orbit: 537 x 1102 km, 38.8° (Epoch: 01 March)

Event Time Altitude Azimuth Distance (km) Brightness Sun altitude
Rises 13:57:35 0° 217° (SW) 3,904 ? 19.0°
Reaches altitude 10° 14:00:54 10° 205° (SSW) 2,942 ? 18.7°
Maximum altitude 14:06:30 24° 154° (SSE) 2,022 ? 18.1°
Drops below altitude 10° 14:11:49 10° 103° (ESE) 2,786 ? 17.6°
Sets 14:14:51 0° 91° (E) 3,656 ? 17.2°
